COSMOS 1275 DEB

Satellite information

Favourite Embed

Satellite Type and Status

DEBRISIN ORBIT

Key statistics

Satellite COSMOS 1275 DEB at a glance.

Uptime

16104

Days in orbit

Revolutions

≈ 14.1

Per day

Orbit

LEO

Low Earth Orbit

Inclination

82.8

Latest

Satellite identification and parameters

Extended collection of information and parameters for COSMOS 1275 DEB.

Object identification

Identified? True

Debris? True

Object name: COSMOS 1275 DEB

International designator: 1981-053AD

Object number (NORAD): 12673

Object ID (CCSDS): 12673

Country: COMMONWEALTH OF INDEPENDENT STATES (CIS)

Current information (Y/N): Y

RCS size: MEDIUM

Orbital parameters

Period: 102.088 minutes

Inclination: 82.8496 deg

SMA: 7235.648 km

Apoapsis: 885.059 km

Periapsis: 829.968 km

RAAN: 57.4323 deg

Eccentricy: 0.0038069

Argument of periapsis: 150.3571 deg

Mean anomaly: 275.9038 deg

Mean motion: 14.10543828 rev/day

Mean motion (dot): 0.0000154 rev/day2

B* drag term: 0.00084985 1/REarth

Two-line elements (TLE)

Creation date: July 6, 2025, 6:05 p.m.

Reference frame: TEME

Reference center: EARTH

Epoch: July 6, 2025, 3:20 p.m. UTC

TLE line 0: 0 COSMOS 1275 DEB

TLE line 1: 1 12673U 81053AD 25187.63912954 .00001540 00000-0 84985-3 0 9995

TLE line 2: 2 12673 82.8496 57.4323 0038069 150.3571 275.9038 14.10543828226156

Live tracking on map

Real-time ground track for satellite COSMOS 1275 DEB.

In-orbit conjunctions

A list of the most updated potential collisions computed for object COSMOS 1275 DEB.

Target Orbit TCA Probability of collision Miss distance Type
FENGYUN 1C DEB SSO 2025-01-09 16:52:59 0.0001460373 168.0 (m) DEBRIS
CZ-6A DEB SSO 2024-12-06 09:37:34 0.0001184602 543.0 (m) DEBRIS
FENGYUN 1C DEB SSO 2024-11-28 19:04:44 0.0001259318 95.0 (m) DEBRIS

Associated space launch

Navigation satellite providing location information for the Tsiklon-B navigation system

COSMOS 1275 DEB was lifted into orbit during the mission ‘Kosmos-3M | Parus 27’, on board a Kosmos-3M space rocket.

The launch took place on June 4, 1981, 3:41 p.m. from 132/2.

For more information about the launch, click the button.

Launch to space Kosmos-3M | Parus 27
Kosmos-3M | Parus 27

Agency: N/A

Status: Launch Successful

Launch date: June 4, 1981, 3:41 p.m. UTC

Rocket: Kosmos-3M

Launch pad: 132/2

Location: Plesetsk Cosmodrome, Russian Federation

...

Latest news about this satellite

There are no fresh news available about this satellite. Check back as we update our databases every day.


Newsletter sign-up

Weekly statistics, charts and insights to help you stay on top of the space industry.